"startDT [UTC]","vpos","CH4 [ppm]","stdev(CH4) [ppm]","CO2 [ppm]","stdev(CO2) [ppm]","H2O_reported [%]","stdev(H2O_reported)","CavityPressure [torr]","CavityTemp [C]","OutletValve","CH4_dry [ppm]","CO2_dry [ppm]","DasTemp [C]","EtalonTemp [C]","WarmBoxTemp [C]","MPVPosition","T_ECpre [C]","T_EC1 [C]","T_EC2 [C]","p_inlet [hPa]","p_in [hPa]","p_out [hPa]","T_inlet [C]","RH_inlet [%]","dwpt_inlet [C]","T_vent [C]","RH_vent [%]","dwpt_vent [C]","flow_vent [l min-1]","flow_inlet [l min-1]","dwpt_sample [C]","T_room [C]"
2015-08-20 00:00:00,0.0,1.93278,0.00040,386.473,0.032,1.1197,0.0038,139.997,45.000,31228.91604,1.95487,391.872,38.306,45.066,45.000,0.00,0.10,-272.72,-272.79,-18,505,-928,28.0,22.2,4.5,27.7,23.3,4.9,5.73,1.96,8.8,30.2
2015-08-20 00:01:00,0.0,1.93255,0.00045,386.415,0.028,1.1239,0.0041,140.001,45.000,31230.12257,1.95475,391.831,38.305,45.066,45.000,0.00,0.10,-272.72,-272.79,-16,505,-927,28.0,22.4,4.6,27.8,23.3,4.9,5.73,1.67,8.7,30.4
2015-08-20 00:02:00,0.0,1.93269,0.00061,386.390,0.031,1.1300,0.0038,140.000,45.000,31229.16212,1.95497,391.836,38.311,45.066,45.000,0.00,0.10,-272.72,-272.79,-17,505,-928,28.0,22.5,4.6,27.7,23.5,5.0,5.73,2.04,8.7,30.4
2015-08-20 00:03:00,0.0,1.93176,0.00062,386.430,0.039,1.1083,0.0096,139.997,45.000,31228.16615,1.95367,391.771,38.313,45.066,45.000,0.00,0.10,-272.72,-272.79,-17,505,-928,28.0,22.0,4.3,27.7,23.2,4.8,5.73,1.72,8.7,30.3
2015-08-20 00:04:00,0.0,1.93157,0.00036,386.396,0.050,1.1011,0.0065,139.999,45.000,31229.18892,1.95326,391.702,38.311,45.066,45.000,0.00,0.10,-272.73,-272.79,-16,505,-928,28.0,21.8,4.2,27.7,22.9,4.7,5.73,1.88,8.7,30.3
2015-08-20 00:05:00,0.0,1.93142,0.00037,386.379,0.050,1.1040,0.0050,140.001,45.000,31229.25301,1.95319,391.693,38.313,45.066,45.000,0.00,0.10,-272.72,-272.79,-18,505,-928,28.0,21.9,4.3,27.7,23.0,4.7,5.73,1.95,8.7,30.3
2015-08-20 00:06:00,0.0,1.93139,0.00037,386.408,0.021,1.0975,0.0038,139.996,45.000,31229.80401,1.95297,391.695,38.313,45.066,45.000,0.00,0.10,-272.72,-272.78,-17,505,-928,28.0,21.8,4.2,27.7,22.9,4.6,5.73,1.68,8.7,30.2
2015-08-20 00:07:00,0.0,1.93183,0.00051,386.393,0.029,1.1086,0.0034,140.000,45.000,31228.86822,1.95364,391.731,38.310,45.066,45.000,0.00,0.10,-272.73,-272.79,-16,505,-928,28.0,22.1,4.3,27.7,23.0,4.7,5.73,2.05,8.7,30.2
2015-08-20 00:08:00,0.0,1.93194,0.00037,386.378,0.043,1.1077,0.0085,140.000,45.000,31226.90019,1.95379,391.716,38.294,45.066,45.000,0.00,0.10,-272.72,-272.79,-18,505,-928,28.0,22.0,4.3,27.7,23.1,4.7,5.73,1.71,8.7,30.2
2015-08-20 00:09:00,0.0,1.93208,0.00058,386.376,0.039,1.1068,0.0092,140.002,45.000,31226.54036,1.95392,391.702,38.282,45.066,45.000,0.00,0.10,-272.72,-272.78,-17,505,-928,28.0,22.0,4.3,27.7,23.0,4.7,5.73,1.88,8.7,30.2
2015-08-20 00:10:00,0.0,1.93137,0.00029,386.357,0.018,1.1053,0.0064,139.997,45.000,31223.99827,1.95314,391.685,38.285,45.066,45.000,0.00,0.10,-272.72,-272.79,-16,505,-928,28.0,21.9,4.3,27.7,23.1,4.7,5.73,1.94,8.7,30.1
2015-08-20 00:11:00,0.0,1.93088,0.00041,386.369,0.029,1.0843,0.0073,139.999,45.000,31224.30739,1.95224,391.590,38.306,45.066,45.000,0.00,0.10,-272.72,-272.79,-18,505,-928,28.0,21.5,4.0,27.7,22.7,4.5,5.73,1.68,8.6,30.1
2015-08-20 00:12:00,0.0,1.93073,0.00041,386.338,0.046,1.0814,0.0046,139.996,45.000,31225.11516,1.95202,391.546,38.287,45.066,45.000,0.00,0.10,-272.72,-272.78,-17,505,-928,28.0,21.5,3.9,27.7,22.5,4.4,5.73,2.05,8.7,30.2
2015-08-20 00:13:00,0.0,1.93122,0.00041,386.293,0.019,1.0884,0.0042,139.999,45.000,31225.61761,1.95260,391.526,38.306,45.066,45.000,0.00,0.10,-272.72,-272.79,-16,505,-928,28.0,21.7,4.1,27.7,22.6,4.4,5.73,1.71,8.6,30.2
2015-08-20 00:14:00,0.0,1.93118,0.00032,386.256,0.029,1.0915,0.0030,139.998,45.000,31226.14870,1.95265,391.509,38.294,45.066,45.000,0.00,0.10,-272.72,-272.79,-18,505,-928,28.0,21.7,4.1,27.7,22.7,4.5,5.73,1.88,8.6,30.2
2015-08-20 00:15:00,0.0,1.93140,0.00024,386.287,0.035,1.0983,0.0034,139.996,45.000,31225.27660,1.95301,391.572,38.283,45.066,45.000,0.00,0.10,-272.72,-272.79,-17,505,-928,28.0,21.9,4.2,27.7,22.9,4.6,5.73,1.95,8.6,30.3
2015-08-20 00:16:00,0.0,1.93066,0.00046,386.330,0.036,1.0831,0.0080,139.999,45.000,31226.01872,1.95206,391.544,38.271,45.066,45.000,0.00,0.10,-272.72,-272.78,-16,505,-928,28.0,21.6,4.0,27.7,22.7,4.5,5.73,1.68,8.6,30.3
2015-08-20 00:17:00,0.0,1.93067,0.00035,386.368,0.030,1.0798,0.0056,140.002,45.000,31225.70409,1.95190,391.565,38.258,45.066,45.000,0.00,0.10,-272.73,-272.79,-18,505,-928,28.0,21.5,3.9,27.7,22.6,4.4,5.73,2.04,8.6,30.4
2015-08-20 00:18:00,0.0,1.93092,0.00061,386.355,0.053,1.0856,0.0066,140.000,45.000,31225.65434,1.95224,391.580,38.253,45.066,45.000,0.00,0.10,-272.72,-272.79,-17,505,-928,28.0,21.7,4.1,27.7,22.6,4.4,5.73,1.73,8.6,30.3
2015-08-20 00:19:00,0.0,1.93109,0.00041,386.372,0.032,1.0885,0.0057,139.998,45.000,31226.80060,1.95256,391.609,38.252,45.066,45.000,0.00,0.10,-272.72,-272.79,-16,505,-928,28.0,21.7,4.1,27.7,22.7,4.5,5.73,1.86,8.6,30.3
2015-08-20 00:20:00,0.0,1.93066,0.00045,386.409,0.039,1.0881,0.0064,140.002,45.000,31226.26783,1.95202,391.641,38.250,45.066,45.000,0.00,0.10,-272.73,-272.79,-18,505,-928,28.0,21.7,4.1,27.7,22.7,4.4,5.73,1.98,8.6,30.2
2015-08-20 00:21:00,0.0,1.93058,0.00043,386.433,0.028,1.0898,0.0031,140.002,45.000,31227.10297,1.95208,391.681,38.250,45.066,45.000,0.00,0.10,-272.73,-272.79,-17,505,-928,28.0,21.7,4.1,27.7,22.7,4.5,5.73,1.66,8.6,30.2
2015-08-20 00:22:00,0.0,1.93047,0.00055,386.413,0.038,1.0880,0.0036,140.001,45.000,31226.90733,1.95192,391.652,38.250,45.066,45.000,0.00,0.10,-272.72,-272.78,-16,505,-928,28.0,21.7,4.1,27.7,22.7,4.5,5.73,2.03,8.5,30.2
2015-08-20 00:23:00,0.0,1.93053,0.00046,386.445,0.026,1.0879,0.0087,140.003,45.000,31225.62353,1.95192,391.684,38.250,45.066,45.000,0.00,0.10,-272.72,-272.79,-18,505,-928,28.0,21.7,4.1,27.7,22.8,4.5,5.73,1.76,8.5,30.2
2015-08-20 00:24:00,0.0,1.93054,0.00031,386.467,0.042,1.0826,0.0039,139.998,45.000,31225.18411,1.95180,391.676,38.235,45.066,45.000,0.00,0.10,-272.73,-272.79,-17,505,-928,27.9,21.6,4.0,27.7,22.6,4.4,5.73,1.82,8.5,30.2
2015-08-20 00:25:00,0.0,1.93099,0.00041,386.458,0.030,1.0940,0.0061,140.000,45.000,31225.47661,1.95248,391.724,38.244,45.066,45.000,0.00,0.10,-272.72,-272.79,-16,505,-928,27.9,21.9,4.2,27.7,22.8,4.5,5.73,2.00,8.5,30.3
2015-08-20 00:26:00,0.0,1.93101,0.00029,386.390,0.036,1.0904,0.0039,140.003,45.000,31226.23062,1.95250,391.644,38.250,45.066,45.000,0.00,0.10,-272.71,-272.79,-18,504,-928,27.9,21.8,4.1,27.7,22.8,4.5,5.73,1.66,8.5,30.3
2015-08-20 00:27:00,0.0,1.93052,0.00044,386.284,0.035,1.0732,0.0033,139.998,45.000,31222.65729,1.95166,391.448,38.250,45.066,45.000,0.00,0.10,-272.73,-272.79,-17,505,-928,27.9,21.4,3.9,27.7,22.5,4.3,5.73,2.01,8.5,30.2
2015-08-20 00:28:00,0.0,1.93084,0.00035,386.308,0.043,1.0875,0.0052,140.000,45.000,31224.08113,1.95220,391.542,38.250,45.066,45.000,0.00,0.10,-272.72,-272.79,-16,505,-928,27.9,21.8,4.1,27.7,22.6,4.4,5.73,1.81,8.5,30.2
2015-08-20 00:29:00,0.0,1.93053,0.00031,386.259,0.032,1.0932,0.0037,140.002,45.000,31226.05209,1.95206,391.518,38.248,45.066,45.000,0.00,0.10,-272.72,-272.79,-18,505,-928,27.9,21.8,4.1,27.7,22.8,4.5,5.73,1.77,8.5,30.3
2015-08-20 00:30:00,0.0,1.93081,0.00053,386.253,0.030,1.0905,0.0040,140.001,45.000,31224.05554,1.95224,391.502,38.250,45.066,45.000,0.00,0.10,-272.72,-272.79,-17,505,-928,27.9,21.8,4.1,27.7,22.8,4.5,5.73,2.03,8.5,30.3
2015-08-20 00:31:00,0.0,1.93071,0.00047,386.202,0.043,1.0895,0.0066,140.001,45.000,31224.66423,1.95216,391.444,38.246,45.066,45.000,0.00,0.10,-272.72,-272.80,-16,505,-928,27.9,21.8,4.1,27.7,22.8,4.5,5.73,1.67,8.5,30.3
2015-08-20 00:32:00,0.0,1.93062,0.00043,386.188,0.031,1.1010,0.0037,140.000,45.000,31222.41994,1.95226,391.487,38.242,45.066,45.000,0.00,0.10,-272.73,-272.78,-17,504,-928,27.9,22.0,4.3,27.7,23.0,4.6,5.73,1.97,8.5,30.3
2015-08-20 00:33:00,0.0,1.93030,0.00035,386.153,0.034,1.0969,0.0060,140.001,45.000,31221.64193,1.95197,391.435,38.239,45.066,45.000,0.00,0.10,-272.72,-272.79,-17,505,-928,27.9,21.9,4.2,27.7,23.0,4.6,5.73,1.87,8.5,30.2
2015-08-20 00:34:00,0.0,1.93026,0.00035,386.150,0.032,1.1006,0.0078,140.003,45.000,31225.06555,1.95192,391.443,38.243,45.066,45.000,0.00,0.10,-272.73,-272.79,-16,504,-928,27.9,22.1,4.3,27.7,22.9,4.6,5.73,1.72,8.4,30.2
2015-08-20 00:35:00,0.0,1.93039,0.00040,386.155,0.037,1.0992,0.0042,139.998,45.000,31223.24332,1.95203,391.444,38.250,45.066,45.000,0.00,0.10,-272.73,-272.79,-18,505,-928,27.9,22.0,4.2,27.7,23.0,4.6,5.73,2.05,8.5,30.2
2015-08-20 00:36:00,0.0,1.93060,0.00053,386.189,0.034,1.1035,0.0041,139.998,45.000,31223.25360,1.95226,391.500,38.250,45.066,45.000,0.00,0.10,-272.71,-272.78,-17,505,-928,27.9,22.0,4.2,27.6,23.0,4.7,5.73,1.69,8.4,30.2
2015-08-20 00:37:00,0.0,1.93123,0.00041,386.216,0.032,1.0969,0.0038,140.002,45.000,31223.45384,1.95287,391.497,38.249,45.066,45.000,0.00,0.10,-272.73,-272.79,-16,505,-928,27.9,21.9,4.2,27.6,23.0,4.6,5.73,1.92,8.4,30.1
2015-08-20 00:38:00,0.0,1.93095,0.00032,386.195,0.031,1.0930,0.0023,140.002,45.000,31224.34979,1.95241,391.455,38.247,45.066,45.000,0.00,0.10,-272.73,-272.79,-17,505,-928,27.9,21.9,4.2,27.6,22.9,4.5,5.73,1.92,8.4,30.2
2015-08-20 00:39:00,0.0,1.93121,0.00040,386.175,0.033,1.0979,0.0057,140.000,45.000,31223.89242,1.95281,391.457,38.246,45.066,45.000,0.00,0.10,-272.72,-272.78,-17,505,-928,27.9,22.0,4.2,27.7,23.0,4.6,5.73,1.69,8.4,30.2
2015-08-20 00:40:00,0.0,1.93131,0.00054,386.176,0.039,1.0967,0.0036,140.000,45.000,31223.88362,1.95294,391.457,38.237,45.066,45.000,0.00,0.10,-272.72,-272.79,-16,504,-928,27.9,21.9,4.2,27.7,22.9,4.6,5.73,2.05,8.4,30.2
2015-08-20 00:41:00,0.0,1.93122,0.00022,386.153,0.027,1.0848,0.0053,140.001,45.000,31223.55037,1.95257,391.370,38.211,45.066,45.000,0.00,0.10,-272.72,-272.80,-18,504,-928,27.9,21.7,4.0,27.7,22.8,4.5,5.73,1.73,8.4,30.1
2015-08-20 00:42:00,0.0,1.93155,0.00039,386.158,0.032,1.0922,0.0049,140.005,45.000,31224.01647,1.95306,391.415,38.204,45.066,45.000,0.00,0.10,-272.72,-272.78,-17,505,-928,27.9,21.9,4.1,27.7,22.8,4.5,5.73,1.86,8.4,30.1
2015-08-20 00:43:00,0.0,1.93117,0.00044,386.126,0.030,1.0950,0.0043,139.999,45.000,31223.85221,1.95277,391.394,38.200,45.066,45.000,0.00,0.10,-272.72,-272.79,-16,505,-928,27.9,21.9,4.2,27.7,22.9,4.6,5.73,1.98,8.4,30.2
2015-08-20 00:44:00,0.0,1.93118,0.00055,386.092,0.035,1.0919,0.0058,139.998,45.000,31223.24252,1.95261,391.347,38.209,45.066,45.000,0.00,0.10,-272.72,-272.79,-18,505,-928,27.9,21.8,4.1,27.7,22.9,4.6,5.73,1.67,8.4,30.2
2015-08-20 00:45:00,0.0,1.93114,0.00025,386.124,0.061,1.0848,0.0078,140.001,45.000,31224.49909,1.95254,391.341,38.213,45.066,45.000,0.00,0.10,-272.73,-272.79,-17,505,-928,27.9,21.7,4.0,27.6,22.7,4.5,5.73,2.02,8.4,30.1
2015-08-20 00:46:00,0.0,1.93084,0.00047,386.131,0.024,1.0800,0.0033,140.000,45.000,31223.83308,1.95205,391.326,38.225,45.066,45.000,0.00,0.10,-272.71,-272.79,-16,504,-928,27.9,21.6,3.9,27.6,22.6,4.4,5.73,1.79,8.4,30.1
2015-08-20 00:47:00,0.0,1.93087,0.00030,386.124,0.034,1.0880,0.0057,139.998,45.000,31222.73282,1.95229,391.352,38.214,45.066,45.000,0.00,0.10,-272.72,-272.79,-17,504,-928,27.9,21.8,4.1,27.6,22.7,4.4,5.73,1.78,8.4,30.1
2015-08-20 00:48:00,0.0,1.93138,0.00043,386.059,0.042,1.1027,0.0041,140.001,45.000,31224.67296,1.95314,391.368,38.207,45.066,45.000,0.00,0.10,-272.73,-272.79,-17,505,-928,27.9,22.1,4.3,27.6,23.0,4.6,5.73,2.03,8.4,30.1
2015-08-20 00:49:00,0.0,1.93116,0.00025,386.067,0.034,1.0992,0.0023,139.999,45.000,31222.93409,1.95275,391.354,38.197,45.066,45.000,0.00,0.10,-272.72,-272.78,-16,504,-928,27.9,22.1,4.2,27.6,23.0,4.7,5.73,1.67,8.4,30.2
2015-08-20 00:50:00,0.0,1.93127,0.00042,386.065,0.029,1.1060,0.0067,140.003,45.000,31225.27945,1.95302,391.389,38.194,45.066,45.000,0.00,0.10,-272.73,-272.78,-17,504,-928,27.9,22.2,4.3,27.6,23.1,4.7,5.73,1.96,8.4,30.2
2015-08-20 00:51:00,0.0,1.93174,0.00032,386.039,0.044,1.1032,0.0050,140.001,45.000,31223.96732,1.95344,391.345,38.195,45.066,45.000,0.00,0.10,-272.73,-272.79,-17,505,-928,27.9,22.1,4.3,27.6,23.2,4.7,5.73,1.89,8.3,30.2
2015-08-20 00:52:00,0.0,1.93123,0.00045,386.030,0.046,1.0972,0.0065,139.998,45.000,31224.26041,1.95285,391.313,38.193,45.066,45.000,0.00,0.10,-272.73,-272.79,-16,505,-928,27.9,22.0,4.2,27.6,23.0,4.6,5.73,1.71,8.3,30.2
2015-08-20 00:53:00,0.0,1.93090,0.00031,386.025,0.024,1.0989,0.0029,140.002,45.000,31225.78055,1.95257,391.310,38.207,45.066,45.000,0.00,0.10,-272.72,-272.78,-17,504,-928,27.9,22.0,4.2,27.6,23.0,4.6,5.73,2.05,8.3,30.1
2015-08-20 00:54:00,0.0,1.93134,0.00062,385.978,0.041,1.1062,0.0062,139.994,45.000,31223.87140,1.95309,391.300,38.217,45.066,45.000,0.00,0.10,-272.72,-272.79,-17,505,-928,27.9,22.2,4.3,27.6,23.1,4.7,5.73,1.71,8.3,30.1
2015-08-20 00:55:00,0.0,1.93125,0.00033,385.938,0.026,1.1120,0.0030,139.999,45.000,31225.32411,1.95314,391.290,38.230,45.066,45.000,0.00,0.10,-272.73,-272.78,-16,504,-928,27.9,22.3,4.4,27.6,23.3,4.8,5.73,1.87,8.3,30.1
2015-08-20 00:56:00,0.0,1.93135,0.00035,385.884,0.050,1.1197,0.0031,140.001,45.000,31225.64712,1.95346,391.270,38.236,45.066,45.000,0.00,0.10,-272.72,-272.79,-17,504,-928,27.9,22.5,4.5,27.6,23.4,4.9,5.73,1.97,8.3,30.3
2015-08-20 00:57:00,0.0,1.93120,0.00026,385.936,0.037,1.1069,0.0054,139.998,45.000,31222.81436,1.95299,391.262,38.202,45.066,45.000,0.00,0.10,-272.72,-272.79,-17,505,-928,27.9,22.2,4.3,27.6,23.2,4.7,5.73,1.67,8.3,30.2
2015-08-20 00:58:00,0.0,1.93193,0.00033,385.841,0.042,1.1077,0.0044,140.001,45.000,31223.65327,1.95372,391.175,38.204,45.066,45.000,0.00,0.10,-272.73,-272.79,-16,505,-928,27.9,22.2,4.3,27.6,23.2,4.7,5.73,2.04,8.3,30.1
2015-08-20 00:59:00,0.0,1.93193,0.00034,385.783,0.025,1.0963,0.0051,139.996,45.000,31222.37349,1.95353,391.056,38.239,45.066,45.000,0.00,0.10,-272.71,-272.79,-17,505,-928,27.9,22.0,4.1,27.6,23.0,4.6,5.73,1.77,8.3,30.1
2015-08-20 01:00:00,0.0,1.93242,0.00038,385.711,0.037,1.1012,0.0087,140.000,45.000,31222.60557,1.95406,391.004,38.222,45.066,45.000,0.00,0.10,-272.72,-272.78,-17,505,-928,27.9,22.2,4.3,27.6,23.0,4.6,5.73,1.83,8.3,30.6
2015-08-20 01:01:00,0.0,1.93217,0.00047,385.596,0.057,1.1181,0.0033,139.998,45.000,31224.96733,1.95421,390.973,38.193,45.066,45.000,0.00,0.10,-272.73,-272.79,-16,504,-928,27.8,22.5,4.5,27.6,23.4,4.8,5.73,1.97,8.3,30.9
2015-08-20 01:02:00,0.0,1.93199,0.00037,385.539,0.023,1.1152,0.0036,139.998,45.000,31226.04844,1.95400,390.902,38.258,45.066,45.000,0.00,0.10,-272.72,-272.78,-17,504,-928,27.8,22.5,4.4,27.5,23.5,4.8,5.73,1.73,8.3,31.1
2015-08-20 01:03:00,0.0,1.93212,0.00018,385.499,0.037,1.1146,0.0036,139.999,45.000,31226.91996,1.95409,390.857,38.377,45.066,45.001,0.00,0.10,-272.72,-272.78,-16,504,-928,27.8,22.5,4.4,27.5,23.5,4.8,5.73,1.95,8.3,31.2
2015-08-20 01:04:00,0.0,1.93203,0.00055,385.434,0.033,1.1145,0.0054,139.997,45.001,31226.06154,1.95397,390.793,38.508,45.067,45.001,0.00,0.10,-272.73,-272.79,-17,504,-929,27.7,22.6,4.4,27.4,23.6,4.8,5.73,1.87,8.3,31.4
2015-08-20 01:05:00,0.0,1.93203,0.00037,385.506,0.118,1.1149,0.0101,140.002,45.001,31226.68028,1.95405,390.869,38.656,45.067,45.001,0.00,0.10,-272.72,-272.79,-16,504,-929,27.7,22.5,4.4,27.4,23.7,4.8,5.73,1.76,8.3,31.5
2015-08-20 01:06:00,0.0,1.93238,0.00041,385.411,0.052,1.0921,0.0044,140.001,45.001,31224.03721,1.95384,390.656,38.778,45.066,45.000,0.00,0.10,-272.72,-272.79,-17,503,-929,27.7,22.2,4.1,27.3,23.2,4.5,5.73,2.02,8.3,31.5
2015-08-20 01:07:00,0.0,1.93306,0.00032,385.318,0.057,1.1070,0.0071,140.003,45.001,31221.52479,1.95485,390.635,38.889,45.066,45.000,0.00,0.10,-272.72,-272.78,-16,503,-929,27.6,22.6,4.3,27.3,23.4,4.6,5.73,1.77,8.3,31.5
2015-08-20 01:08:00,0.0,1.93269,0.00053,385.484,0.150,1.0889,0.0142,140.000,45.001,31217.44163,1.95417,390.710,38.980,45.065,44.999,0.00,0.10,-272.73,-272.79,-17,503,-929,27.6,22.1,4.0,27.3,23.3,4.5,5.73,1.83,8.3,31.6
2015-08-20 01:09:00,0.0,1.93230,0.00047,385.441,0.046,1.0817,0.0075,139.999,45.002,31213.85405,1.95362,390.640,39.085,45.065,44.999,0.00,0.10,-272.73,-272.79,-17,502,-929,27.6,22.0,3.9,27.2,23.1,4.3,5.73,2.01,8.3,31.6
2015-08-20 01:10:00,0.0,1.93249,0.00068,385.390,0.033,1.0761,0.0041,140.002,45.002,31210.62125,1.95367,390.555,39.210,45.065,44.999,0.00,0.10,-272.72,-272.79,-16,503,-929,27.5,21.9,3.9,27.2,23.0,4.2,5.73,1.73,8.3,31.6
2015-08-20 01:11:00,0.0,1.93304,0.00034,385.414,0.050,1.0691,0.0053,139.995,45.002,31200.37822,1.95410,390.547,39.344,45.065,44.999,0.00,0.10,-272.72,-272.80,-17,502,-930,27.5,21.8,3.8,27.2,22.9,4.2,5.73,1.90,8.3,31.6
2015-08-20 01:12:00,0.0,1.93285,0.00053,385.405,0.031,1.0613,0.0050,139.998,45.002,31196.00691,1.95373,390.494,39.471,45.066,45.000,0.00,0.10,-272.73,-272.79,-16,502,-930,27.5,21.7,3.7,27.2,22.8,4.1,5.73,1.98,8.2,31.6
2015-08-20 01:13:00,0.0,1.93257,0.00058,385.388,0.035,1.0638,0.0091,140.001,45.002,31191.75422,1.95355,390.493,39.570,45.066,45.001,0.00,0.10,-272.72,-272.79,-17,502,-930,27.5,21.7,3.7,27.1,22.8,4.1,5.73,1.70,8.3,31.4
2015-08-20 01:14:00,0.0,1.93258,0.00044,385.455,0.045,1.0531,0.0056,139.999,45.002,31190.21906,1.95327,390.504,39.643,45.066,45.000,0.00,0.10,-272.73,-272.79,-16,502,-930,27.5,21.5,3.6,27.1,22.6,4.0,5.73,1.98,8.3,31.3
2015-08-20 01:15:00,0.0,1.93189,0.00047,385.539,0.032,1.0335,0.0055,139.999,45.002,31192.93274,1.95229,390.494,39.682,45.065,44.999,0.00,0.10,-272.74,-272.79,-17,502,-930,27.5,21.2,3.3,27.1,22.3,3.7,5.73,1.86,8.3,31.2
2015-08-20 01:16:00,0.0,1.93195,0.00038,385.531,0.040,1.0409,0.0093,140.004,45.002,31193.96261,1.95237,390.522,39.658,45.064,44.998,0.00,0.10,-272.72,-272.79,-17,502,-930,27.5,21.4,3.4,27.1,22.3,3.8,5.73,1.76,8.3,31.4
2015-08-20 01:17:00,0.0,1.93224,0.00020,385.467,0.038,1.0538,0.0053,140.000,45.001,31198.17659,1.95296,390.523,39.614,45.064,44.998,0.00,0.10,-272.73,-272.79,-16,502,-930,27.5,21.7,3.6,27.1,22.6,4.0,5.73,2.03,8.2,31.4
2015-08-20 01:18:00,0.0,1.93245,0.00074,385.403,0.033,1.0592,0.0025,140.001,45.001,31201.44191,1.95323,390.482,39.533,45.064,44.999,0.00,0.10,-272.73,-272.80,-17,502,-930,27.5,21.8,3.7,27.1,22.8,4.0,5.73,1.68,8.2,31.5
2015-08-20 01:19:00,0.0,1.93349,0.00031,385.371,0.023,1.0598,0.0034,140.002,45.001,31204.70366,1.95432,390.456,39.470,45.065,45.000,0.00,0.10,-272.72,-272.79,-16,502,-930,27.4,21.8,3.7,27.1,22.8,4.1,5.73,2.03,8.2,31.4
2015-08-20 01:20:00,0.0,1.93318,0.00036,385.363,0.037,1.0558,0.0046,139.999,45.000,31205.55818,1.95396,390.425,39.393,45.066,45.001,0.00,0.10,-272.72,-272.78,-17,502,-930,27.4,21.7,3.6,27.1,22.8,4.0,5.73,1.74,8.2,31.3
2015-08-20 01:21:00,0.0,1.93272,0.00044,385.405,0.035,1.0478,0.0082,140.001,45.000,31205.96115,1.95345,390.431,39.319,45.067,45.002,0.00,0.10,-272.72,-272.79,-16,502,-930,27.4,21.5,3.5,27.1,22.6,3.9,5.73,1.94,8.2,31.1
2015-08-20 01:22:00,0.0,1.93236,0.00035,385.454,0.035,1.0289,0.0044,140.003,45.000,31212.30735,1.95257,390.388,39.237,45.068,45.003,0.00,0.10,-272.73,-272.79,-17,502,-930,27.4,21.1,3.3,27.1,22.3,3.7,5.73,1.82,8.3,31.3
2015-08-20 01:23:00,0.0,1.93251,0.00026,385.450,0.028,1.0406,0.0045,140.002,45.000,31217.19706,1.95297,390.433,39.166,45.068,45.003,0.00,0.10,-272.72,-272.79,-17,503,-930,27.4,21.4,3.4,27.1,22.3,3.7,5.73,1.89,8.3,31.1
2015-08-20 01:24:00,0.0,1.93231,0.00054,385.443,0.027,1.0336,0.0049,139.996,45.000,31220.37344,1.95259,390.396,39.088,45.069,45.003,0.00,0.10,-272.72,-272.79,-16,503,-930,27.5,21.2,3.3,27.1,22.3,3.7,5.73,1.81,8.3,30.9
2015-08-20 01:25:00,0.0,1.93275,0.00035,385.434,0.034,1.0407,0.0036,139.999,45.000,31224.51783,1.95320,390.424,39.021,45.069,45.003,0.00,0.10,-272.72,-272.80,-17,503,-930,27.5,21.4,3.4,27.1,22.4,3.8,5.73,1.95,8.2,30.8
2015-08-20 01:26:00,0.0,1.93271,0.00047,385.362,0.046,1.0547,0.0046,139.998,45.000,31228.87358,1.95346,390.421,38.933,45.069,45.003,0.00,0.10,-272.72,-272.78,-15,503,-930,27.5,21.7,3.6,27.1,22.6,4.0,5.73,1.73,8.2,30.6
2015-08-20 01:27:00,0.0,1.93191,0.00062,385.400,0.038,1.0383,0.0100,139.999,45.000,31232.47065,1.95237,390.377,38.866,45.068,45.003,0.00,0.10,-272.72,-272.79,-17,503,-930,27.5,21.2,3.3,27.1,22.5,3.8,5.73,2.03,8.2,30.4
2015-08-20 01:28:00,0.0,1.93183,0.00037,385.394,0.035,1.0323,0.0073,140.002,45.000,31237.16936,1.95214,390.341,38.805,45.068,45.002,0.00,0.10,-272.73,-272.79,-16,503,-930,27.5,21.2,3.4,27.1,22.2,3.7,5.73,1.66,8.2,30.4
2015-08-20 01:29:00,0.0,1.93165,0.00030,385.330,0.035,1.0417,0.0052,139.998,44.999,31238.79855,1.95216,390.325,38.750,45.068,45.002,0.00,0.10,-272.73,-272.79,-16,503,-930,27.5,21.3,3.5,27.1,22.4,3.8,5.73,2.04,8.2,30.2
2015-08-20 01:30:00,0.0,1.93061,0.00057,385.395,0.035,1.0245,0.0088,140.003,44.999,31240.47764,1.95081,390.304,38.704,45.067,45.002,0.00,0.10,-272.72,-272.79,-18,503,-930,27.5,20.9,3.2,27.1,22.2,3.7,5.73,1.73,8.2,30.3
2015-08-20 01:31:00,0.0,1.92987,0.00054,385.429,0.029,1.0073,0.0041,140.000,44.999,31243.52155,1.94963,390.255,38.658,45.067,45.001,0.00,0.10,-272.73,-272.79,-16,503,-930,27.5,20.6,2.9,27.1,21.7,3.4,5.73,1.89,8.2,30.4
2015-08-20 01:32:00,0.0,1.93014,0.00043,385.429,0.024,1.0149,0.0067,140.001,44.999,31244.52616,1.95005,390.285,38.617,45.067,45.001,0.00,0.10,-272.72,-272.79,-16,503,-930,27.5,20.7,3.1,27.1,21.8,3.4,5.73,1.94,8.2,30.4
2015-08-20 01:33:00,0.0,1.92959,0.00039,385.406,0.021,1.0151,0.0041,139.995,44.999,31246.13010,1.94957,390.270,38.581,45.067,45.001,0.00,0.10,-272.73,-272.78,-18,504,-930,27.5,20.7,3.1,27.1,21.9,3.5,5.73,1.70,8.2,30.4
2015-08-20 01:34:00,0.0,1.92925,0.00036,385.435,0.028,1.0070,0.0054,140.002,44.999,31247.19241,1.94897,390.257,38.554,45.066,45.000,0.00,0.10,-272.73,-272.79,-16,504,-930,27.5,20.6,2.9,27.1,21.7,3.4,5.73,2.06,8.1,30.3
2015-08-20 01:35:00,0.0,1.92910,0.00054,385.446,0.026,1.0011,0.0079,140.003,44.999,31247.24206,1.94875,390.241,38.502,45.066,45.000,0.00,0.10,-272.72,-272.80,-17,504,-930,27.5,20.4,2.8,27.1,21.6,3.3,5.73,1.70,8.1,30.2
2015-08-20 01:36:00,0.0,1.92897,0.00035,385.424,0.030,1.0006,0.0032,140.002,44.999,31248.28949,1.94861,390.214,38.480,45.066,45.000,0.00,0.10,-272.72,-272.79,-17,504,-930,27.5,20.4,2.8,27.1,21.5,3.2,5.73,1.92,8.1,30.2
2015-08-20 01:37:00,0.0,1.92912,0.00033,385.419,0.032,1.0049,0.0048,140.006,44.999,31246.75466,1.94882,390.229,38.445,45.066,45.000,0.00,0.10,-272.72,-272.79,-16,504,-930,27.5,20.6,3.0,27.1,21.6,3.3,5.73,1.94,8.1,30.1
2015-08-20 01:38:00,0.0,1.92878,0.00040,385.445,0.045,0.9960,0.0096,140.000,44.999,31243.42597,1.94836,390.214,38.436,45.066,45.000,0.00,0.10,-272.73,-272.80,-16,504,-930,27.5,20.3,2.7,27.1,21.5,3.3,5.73,1.68,8.1,30.1
2015-08-20 01:39:00,0.0,1.92948,0.00030,385.462,0.031,0.9945,0.0034,140.000,44.999,31242.38692,1.94889,390.223,38.391,45.066,45.000,0.00,0.10,-272.73,-272.79,-18,504,-930,27.6,20.3,2.8,27.1,21.4,3.2,5.73,2.04,8.1,30.2
2015-08-20 01:40:00,0.0,1.92943,0.00038,385.403,0.035,1.0070,0.0040,139.999,44.999,31243.13921,1.94915,390.220,38.376,45.066,45.000,0.00,0.10,-272.72,-272.79,-16,504,-930,27.6,20.6,3.0,27.1,21.6,3.3,5.73,1.78,8.1,30.2
2015-08-20 01:41:00,0.0,1.92904,0.00052,385.412,0.043,1.0072,0.0075,140.001,45.000,31243.37941,1.94890,390.236,38.356,45.066,45.000,0.00,0.10,-272.72,-272.79,-16,504,-930,27.6,20.5,2.9,27.1,21.7,3.4,5.73,1.80,8.1,30.1
2015-08-20 01:42:00,0.0,1.92854,0.00031,385.407,0.034,1.0003,0.0057,140.002,45.000,31244.37482,1.94813,390.197,38.321,45.066,45.000,0.00,0.10,-272.73,-272.80,-18,504,-930,27.6,20.4,2.8,27.1,21.5,3.3,5.73,2.04,8.2,30.3
2015-08-20 01:43:00,0.0,1.92745,0.00092,385.448,0.076,0.9838,0.0148,140.000,44.999,31245.70244,1.94678,390.158,38.317,45.066,45.000,0.00,0.10,-272.72,-272.79,-17,504,-930,27.5,20.0,2.5,27.1,21.3,3.1,5.73,1.69,8.1,30.1
2015-08-20 01:44:00,0.0,1.92708,0.00024,385.512,0.028,0.9723,0.0042,140.001,44.999,31243.91205,1.94611,390.162,38.319,45.066,45.000,0.00,0.10,-272.73,-272.78,-16,504,-930,27.5,19.8,2.4,27.1,20.9,2.8,5.73,1.91,8.2,30.0
2015-08-20 01:45:00,0.0,1.92728,0.00037,385.474,0.036,0.9801,0.0062,140.002,45.000,31243.15224,1.94647,390.162,38.323,45.066,45.000,0.00,0.10,-272.73,-272.79,-17,504,-930,27.5,20.0,2.6,27.1,21.1,2.9,5.73,1.97,8.2,30.0
2015-08-20 01:46:00,0.0,1.92761,0.00051,385.455,0.024,0.9784,0.0051,140.000,45.000,31241.42200,1.94671,390.138,38.313,45.065,45.000,0.00,0.10,-272.72,-272.79,-17,504,-930,27.5,20.0,2.5,27.1,21.1,2.9,5.73,1.67,8.2,30.1